Starlink 30245

operational
NORAD ID: 57612 Int'l Des: 2023-119 Owner: SPXS Country: US Constellation: starlink
LEOCIRCULAR

关于 Starlink 30245

正在加载描述...

实时位置

正在加载3D地球...

即将过境

高度历史

Altitude vs Time

uPlot chart will show altitude changes over time

两行轨道根数

1 57612U 23119L 25305.62662130 -.00000555 00000-0 -26044-4 0 9995
2 57612 43.0051 57.3138 0001191 282.2551 77.8158 15.02533615123823
Epoch: Nov 1, 2025 • Age: 12 hours

当前状态

高度 563.0 km
速度 7.59 km/s
星下点 42.73°N, 73.38°E
发射日期 Aug 11, 2023
运行时间 2.2 years
类型 internet

技术详情

分类 Payload
质量 730.00 kg
干质量 700.00 kg
总质量 730.00 kg
长度 0.30 m
直径 4.10 m
跨度 29.00 m
形状 Box + pan
制造商 SPXS
平台类型 Starlink V2M
阶段状态 In Orbit
所有者/国家 SPXS/US

大型星座

Loading constellations...